EW5738 Weather Reports


Display with metric or nautical units.
time (UTC)temp
F
wind
direction
speed
MPH
gust
MPH
rain 1hr
in
rain 24hr
in
rain mn
in
humidity
%
barometer
mb
20260901124544 59 293 3.0 5.0 0.00 0.00 0.00 85 1026.6
20260901123050 59 288 2.0 6.0 0.00 0.00 0.00 85 1026.6
20260901121543 60 272 3.0 5.0 0.00 0.00 0.00 84 1026.7
20260901120048 60 283 3.0 5.0 0.00 0.00 0.00 84 1026.6
20260901114544 61 297 3.0 5.0 0.00 0.00 0.00 84 1026.6
20260901113041 61 317 2.0 3.0 0.00 0.00 0.00 85 1026.7
20260901111540 61 338 2.0 3.0 0.00 0.00 0.00 85 1026.7
20260901110037 61 319 1.0 3.0 0.00 0.00 0.00 85 1026.7
20260901104539 61 328 2.0 3.0 0.00 0.00 0.00 85 1026.6
20260901103032 62 306 1.0 3.0 0.00 0.00 0.00 84 1026.7
20260901101532 62 331 3.0 5.0 0.00 0.00 0.00 84 1026.7
20260901100030 62 331 2.0 4.0 0.00 0.00 0.00 83 1026.7
20260901094527 62 326 2.0 3.0 0.00 0.00 0.00 82 1026.7
20260901093024 63 331 2.0 4.0 0.00 0.00 0.00 81 1026.6
20260901091629 62 314 1.0 3.0 0.00 0.00 0.00 81 1026.6
20260901090022 63 328 2.0 3.0 0.00 0.00 0.00 79 1026.4
20260901084519 63 324 2.0 4.0 0.00 0.00 0.00 77 1026.3
20260901083021 64 314 1.0 2.0 0.00 0.00 0.00 76 1026.2
20260901081517 64 295 0.0 2.0 0.00 0.00 0.00 74 1025.9
20260901080017 66 331 0.0 2.0 0.00 0.00 0.00 72 1025.8
20260901074516 66 344 1.0 2.0 0.00 0.00 0.00 70 1025.7
20260901073019 67 89 1.0 4.0 0.00 0.00 0.00 69 1025.6
20260901071515 67 347 1.0 5.0 0.00 0.00 0.00 69 1025.5
20260901070007 68 1 2.0 4.0 0.00 0.00 0.00 67 1025.5
20260901064508 69 6 1.0 6.0 0.00 0.00 0.00 66 1025.5
20260901063007 69 1 3.0 7.0 0.00 0.00 0.00 65 1025.4
20260901061504 70 1 1.0 7.0 0.00 0.00 0.00 66 1025.4
20260901060003 70 178 2.0 6.0 0.00 0.00 0.00 64 1025.4
20260901054600 69 135 1.0 6.0 0.00 0.00 0.00 66 1025.5
20260901053200 69 20 2.0 4.0 0.00 0.00 0.00 67 1025.5
20260901051557 70 135 0.0 5.0 0.00 0.00 0.00 68 1025.6
20260901050056 69 135 1.0 3.0 0.00 0.00 0.00 69 1025.8
20260901044600 69 141 0.0 3.0 0.00 0.00 0.00 70 1025.9
20260901043057 69 331 0.0 7.0 0.00 0.00 0.00 70 1026.1
20260901041549 69 206 0.0 2.0 0.00 0.00 0.00 69 1026.4
20260901040050 70 46 2.0 9.0 0.00 0.00 0.00 67 1026.5
20260901034546 71 334 2.0 5.0 0.00 0.00 0.00 66 1026.6
20260901033044 71 301 4.0 8.0 0.00 0.00 0.00 66 1026.8
20260901031542 72 307 2.0 5.0 0.00 0.00 0.00 67 1027.0
20260901030037 71 345 2.0 5.0 0.00 0.00 0.00 68 1027.3
20260901024535 69 178 0.0 4.0 0.00 0.00 0.00 70 1027.6
20260901023040 68 152 0.0 5.0 0.00 0.00 0.00 69 1027.8
20260901021531 69 160 1.0 6.0 0.00 0.00 0.00 71 1028.2
20260901020030 69 135 1.0 5.0 0.00 0.00 0.00 70 1028.5
20260901014529 69 135 1.0 4.0 0.00 0.00 0.00 72 1028.6
20260901013029 69 135 2.0 8.0 0.00 0.00 0.00 71 1028.9
20260901011526 70 171 2.0 6.0 0.00 0.00 0.00 71 1029.2
20260901010022 69 274 1.0 4.0 0.00 0.00 0.00 76 1029.5
20260901004517 67 46 1.0 5.0 0.00 0.00 0.00 79 1029.8
20260901003013 65 329 2.0 6.0 0.00 0.00 0.00 81 1030.1
20260901001511 65 195 5.0 9.0 0.00 0.00 0.00 81 1030.5
20260901000123 65 229 1.0 7.0 0.00 0.00 0.00 82 1030.6
20260831234508 65 130 4.0 9.0 0.00 0.00 0.00 80 1031.0
20260831233104 65 175 4.0 7.0 0.00 0.00 0.00 80 1030.9
20260831231502 63 137 4.0 9.0 0.00 0.00 0.00 80 1030.9
20260831230104 64 137 3.0 9.0 0.00 0.00 0.00 79 1030.9
20260831224556 64 138 3.0 8.0 0.00 0.00 0.00 79 1030.7
20260831223057 63 161 1.0 3.0 0.00 0.00 0.00 82 1030.5
20260831221546 62 293 2.0 4.0 0.00 0.00 0.00 82 1030.7
20260831220042 61 283 1.0 5.0 0.00 0.00 0.00 83 1030.6
20260831214538 60 160 1.0 3.0 0.00 0.00 0.00 87 1030.5
20260831213033 58 269 1.0 4.0 0.00 0.00 0.00 89 1030.4
20260831211630 57 170 2.0 6.0 0.00 0.00 0.00 89 1030.1
20260831210023 56 197 2.0 4.0 0.00 0.00 0.00 88 1030.0
20260831204523 56 269 0.0 2.0 0.00 0.00 0.00 88 1029.7
20260831203015 56 89 0.0 4.0 0.00 0.00 0.00 87 1029.4
20260831201515 56 152 1.0 5.0 0.00 0.00 0.00 87 1029.2
20260831200023 56 206 1.0 3.0 0.00 0.00 0.00 87 1029.0
20260831194505 57 173 0.0 3.0 0.00 0.00 0.00 87 1028.9
20260831191500 57 269 0.0 1.0 0.00 0.00 0.00 87 1028.5
20260831190118 57 269 0.0 2.0 0.00 0.00 0.00 87 1028.5
20260831184605 57 314 1.0 2.0 0.00 0.00 0.00 87 1028.5
20260831183100 58 300 0.0 2.0 0.00 0.00 0.00 87 1028.4
20260831181559 58 286 1.0 2.0 0.00 0.00 0.00 87 1028.3
20260831180051 58 308 1.0 2.0 0.00 0.00 0.00 87 1028.3
20260831174550 58 269 1.0 4.0 0.00 0.00 0.00 87 1028.2
20260831173148 58 190 0.0 3.0 0.00 0.00 0.00 86 1028.4
20260831171545 58 279 1.0 3.0 0.00 0.00 0.00 86 1028.5
20260831170046 58 46 0.0 3.0 0.00 0.00 0.00 86 1028.6
20260831164549 59 295 1.0 3.0 0.00 0.00 0.00 86 1028.7
20260831163040 59 221 1.0 4.0 0.00 0.00 0.00 86 1028.8
20260831161538 59 178 3.0 6.0 0.00 0.00 0.00 86 1028.9
20260831160035 59 166 3.0 7.0 0.00 0.00 0.00 86 1029.1
20260831154534 59 210 3.0 6.0 0.00 0.00 0.00 86 1029.2
20260831153030 59 184 1.0 4.0 0.00 0.00 0.00 86 1029.4
20260831151527 59 185 1.0 5.0 0.00 0.00 0.00 86 1029.5
20260831150025 60 178 1.0 3.0 0.00 0.00 0.00 86 1029.6
20260831144532 60 208 2.0 5.0 0.00 0.00 0.00 86 1029.6
20260831143033 60 201 0.0 3.0 0.00 0.00 0.00 86 1029.8
20260831141541 60 219 0.0 3.0 0.00 0.00 0.00 86 1030.0
20260831140035 61 178 1.0 3.0 0.00 0.00 0.00 86 1030.2
20260831134515 61 189 2.0 4.0 0.00 0.00 0.00 85 1030.1
20260831133016 61 206 2.0 5.0 0.00 0.00 0.00 85 1030.3
20260831131511 62 185 3.0 5.0 0.00 0.00 0.00 85 1030.4
20260831130009 62 186 3.0 4.0 0.00 0.00 0.00 84 1030.4